Home > Weather > U.S.A. > Bismarck > Past weeks

Flag for U.S.A. Weather past 2 weeks in Bismarck, North Dakota, U.S.A.

31 °F


Feels Like: 22 °F
Forecast: 20 / 31 °F
Wind: 10 mph from Northwest

Location: Bismarck Municipal Airport

Current Time: Dec 1, 2015 at 12:52:42 PM

Latest Report: Dec 1, 2015 at 11:52 AM

Visibility: 10 mi

Pressure: 29.91 "Hg (28.04 "Hg at 513m altitude)

Humidity: 76%

Dew point: 24 °F

Location of BismarckLocation

Historic Weather in Bismarck — Graph


Bismarck temperature yesterday

Maximum temperature yesterday: 34 °F (at 1:52 PM)
Minimum temperature yesterday: 26 °F (at 2:52 AM)
Average temperature yesterday: 29 °F

Past Weeks' High & Low Weather Summary

High55 °F (Nov 16, 12:52 PM)96% (Nov 30, 8:52 PM)30.75 "Hg (Nov 30, 8:52 PM)
Low2 °F (Nov 26, 10:52 PM)21% (Nov 19, 2:52 PM)29.16 "Hg (Nov 18, 9:52 AM)
Average27 °F67%30.09 "Hg
* Reported Nov 16 11:01 AM — Dec 1 11:52 AM, Bismarck, Weather by CustomWeather, © 2015

Note: Actual official high and low records may vary slightly from our data, if they occured in-between our weather recording intervals... More about our weather records


Bismarck weather history for previous 24 hours

Time TempWeatherWind HumidityBarometerVisibility
11:52 AM
Tue, Dec 1
31 °FOvercast.10 mph76%29.91 "Hg10 mi
10:52 AM30 °FMostly cloudy.13 mph79%29.90 "Hg10 mi
9:52 AM28 °FLight snow. Ice fog.12 mph89%29.90 "Hg3 mi
9:02 AM28 °FLight snow. Ice fog.13 mph89%29.84 "Hg1 mi
8:52 AM27 °FLight snow. Ice fog.12 mph92%29.90 "Hg1 mi
7:52 AM27 °FLight snow. Ice fog.13 mph92%29.89 "Hg1 mi
6:52 AM28 °FLight snow. Ice fog.13 mph89%29.88 "Hg3 mi
5:52 AM27 °FLight snow. Ice fog.13 mph92%29.86 "Hg2 mi
4:52 AM27 °FLight snow. Ice fog.12 mph92%29.86 "Hg3 mi
3:52 AM27 °FMostly cloudy.13 mph92%29.87 "Hg7 mi
2:52 AM27 °FOvercast.10 mph89%29.88 "Hg10 mi
12:56 AM28 °FLight snow. Ice fog.9 mph93%29.84 "Hg2 mi
11:52 PM
Mon, Nov 30
28 °FLight snow. Ice fog.12 mph93%29.92 "Hg1 mi
10:52 PM29 °FLight snow. Mostly cloudy.9 mph89%29.94 "Hg8 mi
9:52 PM29 °FLight snow. Ice fog.9 mph93%29.96 "Hg1 mi
8:52 PM29 °FLight snow. Ice fog.6 mph96%29.98 "Hg1 mi
7:52 PM31 °FLight snow. Ice fog.7 mph85%29.99 "Hg2 mi
6:52 PM32 °FOvercast.10 mph73%30.00 "Hg10 mi
5:52 PM33 °FMostly cloudy.9 mph70%30.01 "Hg10 mi
4:52 PM33 °FOvercast.9 mph63%30.01 "Hg10 mi
3:52 PM34 °FMostly cloudy.6 mph64%30.04 "Hg10 mi
2:52 PM34 °FMostly cloudy.No wind59%30.05 "Hg10 mi
1:52 PM34 °FMostly cloudy.5 mph64%30.06 "Hg10 mi
12:52 PM32 °FMostly cloudy.No wind73%30.10 "Hg10 mi
Weather by CustomWeather, © 2015

See weather overviewHow to use our weather pages